sat.trackr.live / text

‹ back to catalog

STARLINK-3267

NORAD 50197 · 2021-125AT

PAYLOAD ACTIVE UNKNOWN

§ Identity

Operator
Country
US
Launch date
2021-12-18
Launch site
AFWTR
Launch vehicle
Mass (kg)
RCS (m²)

Purposes: comms

External: N2YO · Heavens-Above · Gunter

§ Orbital elements

Epoch: 2026-05-24T17:40:08.173344Z

Period
95.44 min
Inclination
53.2145°
Eccentricity
0.0000976
Mean motion
15.08837411 rev/d
Perigee alt
539.1 km
Apogee alt
540.4 km
Semi-major
6,917.9 km
B*
4.2862e-5
RAAN
257.7339°
Arg perigee
86.9397°
Mean anomaly
273.1707°
Rev number
24,826

§ Raw data

STARLINK-32671 50197U 21125AT  26144.73620571  .00000394  00000+0  42862-4 0  99922 50197  53.2145 257.7339 0000976  86.9397 273.1707 15.08837411248261

JSON: /api/v1/satellites/50197 · /tle

For live sub-satellite position, see the globe view (requires WebGL).

§ Visibility from observer

Set your observer location to see the next 7 days of passes ≥ 10°. The values pass through the URL so the page stays shareable.

No JS? Fill the form by hand. The geolocation button needs JavaScript.